Location: Colebrook
(42.0017°N, 73.0973°W)
Time: 15:29:24
(UTC-05:00)

Vanguard 2 - Pass Details

Date: 26 October 2021
Orbit: 554 x 2936 km, 32.9° (Epoch: 04 December)

Event Time Altitude Azimuth Distance (km) Brightness Sun altitude
Exits shadow 06:26:41 10° 259° (W) 3,350 10.2 -10.2°
Reaches altitude 10° 06:26:45 10° 259° (WSW) 3,328 10.2 -10.2°
Maximum altitude 06:32:37 23° 210° (SSW) 1,932 9.4 -9.1°
Drops below altitude 10° 06:36:52 10° 158° (SSE) 2,316 10.4 -8.3°
Sets 06:39:20 0° 143° (SE) 3,035 11.4 -7.8°
